User: anonymous   Login
Location: Lourdes
(43.1000°N, 0.0500°W)
Time: 21:46:39
(UTC+00:00)
Language:

Lacrosse 4 Rocket - Orbit

View from above orbital plane
View from above orbital plane
View from above satellite
View from above satellite

Ground track
Ground track

The orbit data is extracted from the following two-line orbital elements,

1 26474U 00047B   21058.51528279  .00000261  00000-0  33348-4 0  9993
2 26474  67.9928  93.5553 0061126 276.4439  82.9745 14.96091514117393
Epoch (UTC): 27 February 2021 12:22:00
Eccentricity: 0.0061126
inclination: 67.9928°
perigee height: 536 km
apogee height: 621 km
right ascension of ascending node: 93.5553°
argument of perigee: 276.4439°
revolutions per day: 14.96091514
mean anomaly at epoch: 82.9745°
orbit number at epoch: 11739

The dashed part of the orbit path shows where the satellite is in the earth's shadow,  

DLR